Location: Little Chesterford
(52.0500°N, 0.1833°E)
Time: 19:48:59
(UTC+00:00)

Nadezhda 3 Rocket - Pass Details

Date: 26 September 2023
Orbit: 955 x 999 km, 82.9° (Epoch: 08 December)

Event Time Altitude Azimuth Distance (km) Brightness Sun altitude
Rises 20:08:38 0° 195° (SSW) 3,706 6.9 -21.6°
Reaches altitude 10° 20:11:10 10° 197° (SSW) 2,763 6.2 -21.9°
Maximum altitude 20:17:31 73° 282° (WNW) 1,046 4.2 -22.8°
Drops below altitude 10° 20:23:55 10° 8° (N) 2,779 6.6 -23.6°
Sets 20:26:28 0° 10° (N) 3,729 7.3 -23.9°
